Weather History for Tappahannock, VA

Change the Weather History Date:

Monday, January 20, 2014

  Actual Average (KRIC) Record (KRIC)
Temperature  
Mean Temperature 47 °F 38 °F  
Max Temperature 59 °F 47 °F 74 °F (1951)
Min Temperature 36 °F 28 °F -2 °F (1985)
Degree Days  
Heating Degree Days 18 27  
Month to date heating degree days 540  
Since 1 July heating degree days 1959  
Cooling Degree Days 0 0  
Month to date cooling degree days 0  
Year to date cooling degree days 0  
Moisture  
Dew Point 19 °F    
Average Humidity 36    
Maximum Humidity 61    
Minimum Humidity 19    
Precipitation  
Precipitation 0.00 in 0.10 in 1.03 in (1979)
Month to date precipitation 1.96  
Year to date precipitation 1.96  
Snow  
Snow 0.00 in 0.10 in 4.20 in (1985)
Month to date snowfall 2.3  
Since 1 July snowfall 4.6  
Snow Depth -    
Sea Level Pressure  
Sea Level Pressure 29.76 in    
Wind  
Wind Speed 8 mph (SW)    
Max Wind Speed 15 mph    
Max Gust Speed 23 mph    
Visibility 10 miles    
Events      
T = Trace of Precipitation, MM = Missing Value Source: NWS Daily Summary

Daily Weather History Graph

Daily Weather History Graph

Search for Another Location

Airport:

Trip Planner

Search our weather history database for the weather conditions in past years. The results will help you decide how hot, cold, wet, or windy it might be!

Date:

Astronomy

Jan. 20, 2014 Rise Set
Actual Time 7:19 AM EST 5:17 PM EST
Civil Twilight 6:51 AM EST 5:46 PM EST
Nautical Twilight 6:19 AM EST 6:18 PM EST
Astronomical Twilight 5:48 AM EST 6:49 PM EST
Moon 9:45 PM EST (1/20) 9:23 AM EST (1/20)
Length of Visible Light 10h 54m
Length of Day
9h 57m
Waning Gibbous, 83% of the Moon is Illuminated
Jan 20
Waning Gibbous
Jan 24
Last Quarter
Jan 30
New
Feb 6
First Quarter
Feb 14
Full

Hourly Weather History & Observations

Time (EST) Temp. Windchill Dew Point Humidity Pressure Visibility Wind Dir Wind Speed Gust Speed Precip Events Conditions
12:15 AM 40.3 °F 33.9 °F 21.2 °F 47% 29.80 in 10.0 mi SSW 10.4 mph - N/A   Clear
12:35 AM 41.0 °F 35.2 °F 20.7 °F 44% 29.80 in 10.0 mi SSW 9.2 mph - N/A   Clear
12:55 AM 41.0 °F 36.4 °F 20.3 °F 44% 29.79 in 10.0 mi SSW 6.9 mph - N/A   Clear
1:15 AM 41.0 °F 35.8 °F 20.3 °F 44% 29.79 in 10.0 mi SSW 8.1 mph - N/A   Clear
1:35 AM 40.5 °F 34.6 °F 20.3 °F 45% 29.78 in 10.0 mi SSW 9.2 mph - N/A   Clear
1:55 AM 40.5 °F 34.6 °F 20.1 °F 44% 29.78 in 10.0 mi SSW 9.2 mph - N/A   Clear
2:15 AM 40.1 °F 34.1 °F 20.1 °F 45% 29.78 in 10.0 mi SSW 9.2 mph - N/A   Clear
2:35 AM 39.9 °F 33.9 °F 19.9 °F 45% 29.77 in 10.0 mi SSW 9.2 mph - N/A   Clear
2:55 AM 39.7 °F 35.6 °F 19.6 °F 44% 29.76 in 10.0 mi SSW 5.8 mph - N/A   Clear
3:15 AM 40.3 °F 34.9 °F 19.4 °F 43% 29.76 in 10.0 mi SW 8.1 mph - N/A   Clear
3:35 AM 40.1 °F 36.1 °F 19.4 °F 43% 29.77 in 10.0 mi SW 5.8 mph - N/A   Clear
3:55 AM 39.2 °F 35.0 °F 19.4 °F 45% 29.76 in 10.0 mi South 5.8 mph - N/A   Clear
4:15 AM 36.9 °F 33.1 °F 20.3 °F 51% 29.76 in 10.0 mi South 4.6 mph - N/A   Clear
4:35 AM 36.5 °F 31.8 °F 20.8 °F 53% 29.76 in 10.0 mi South 5.8 mph - N/A   Clear
4:55 AM 36.5 °F 31.0 °F 20.3 °F 52% 29.76 in 10.0 mi SSW 6.9 mph - N/A   Clear
5:15 AM 37.8 °F 32.5 °F 20.1 °F 49% 29.76 in 10.0 mi SSW 6.9 mph - N/A   Clear
5:35 AM 38.3 °F 33.2 °F 19.8 °F 47% 29.76 in 10.0 mi SSW 6.9 mph - N/A   Clear
5:55 AM 38.8 °F 34.6 °F 19.2 °F 45% 29.75 in 10.0 mi SSW 5.8 mph - N/A   Clear
6:15 AM 38.5 °F 35.0 °F 19.2 °F 46% 29.75 in 10.0 mi SSW 4.6 mph - N/A   Clear
6:35 AM 38.8 °F 35.4 °F 18.7 °F 44% 29.75 in 10.0 mi South 4.6 mph - N/A   Clear
6:55 AM 37.9 °F 33.5 °F 19.0 °F 47% 29.74 in 10.0 mi SSW 5.8 mph - N/A   Clear
7:15 AM 38.7 °F 33.6 °F 18.3 °F 44% 29.73 in 10.0 mi SSW 6.9 mph - N/A   Clear
7:35 AM 40.1 °F 35.3 °F 17.6 °F 40% 29.73 in 10.0 mi SSW 6.9 mph - N/A   Clear
7:55 AM 42.1 °F 37.7 °F 16.3 °F 35% 29.73 in 10.0 mi SSW 6.9 mph - N/A   Clear
8:15 AM 43.7 °F 38.1 °F 14.7 °F 31% 29.73 in 10.0 mi SSW 10.4 mph 16.1 mph N/A   Clear
8:35 AM 45.3 °F 40.1 °F 14.0 °F 28% 29.73 in 10.0 mi SW 10.4 mph 18.4 mph N/A   Clear
8:55 AM 46.4 °F 41.9 °F 14.2 °F 27% 29.73 in 10.0 mi SSW 9.2 mph 17.3 mph N/A   Clear
9:15 AM 47.3 °F - 14.4 °F 27% 29.74 in 10.0 mi SW 11.5 mph 16.1 mph N/A   Clear
9:35 AM 49.1 °F - 14.2 °F 25% 29.74 in 10.0 mi SSW 13.8 mph 18.4 mph N/A   Clear
9:55 AM 50.7 °F - 14.4 °F 24% 29.74 in 10.0 mi SW 15.0 mph 23.0 mph N/A   Clear
10:15 AM 51.1 °F - 13.6 °F 23% 29.74 in 10.0 mi SW 10.4 mph 23.0 mph N/A   Clear
10:35 AM 51.4 °F - 13.6 °F 22% 29.74 in 10.0 mi SW 15.0 mph 21.9 mph N/A   Clear
10:55 AM 51.8 °F - 13.3 °F 22% 29.73 in 10.0 mi SSW 12.7 mph 20.7 mph N/A   Clear
11:15 AM 52.3 °F - 13.5 °F 21% 29.73 in 10.0 mi SW 13.8 mph 21.9 mph N/A   Clear
11:35 AM 53.2 °F - 14.2 °F 21% 29.72 in 10.0 mi SW 13.8 mph 21.9 mph N/A   Clear
11:55 AM 52.9 °F - 14.2 °F 22% 29.71 in 10.0 mi SW 12.7 mph 21.9 mph N/A   Clear
12:15 PM 53.6 °F - 15.4 °F 22% 29.70 in 10.0 mi SW 8.1 mph 16.1 mph N/A   Clear
12:35 PM 54.0 °F - 15.8 °F 22% 29.69 in 10.0 mi SW 9.2 mph 16.1 mph N/A   Clear
12:55 PM 54.5 °F - 16.2 °F 22% 29.68 in 10.0 mi SW 9.2 mph 19.6 mph N/A   Clear
1:15 PM 55.4 °F - 16.9 °F 22% 29.68 in 10.0 mi SW 9.2 mph - N/A   Clear
1:35 PM 57.7 °F - 15.6 °F 19% 29.68 in 10.0 mi SW 15.0 mph 21.9 mph N/A   Clear
1:55 PM 56.8 °F - 16.3 °F 20% 29.68 in 10.0 mi SW 15.0 mph 23.0 mph N/A   Clear
2:15 PM 56.3 °F - 16.9 °F 21% 29.67 in 10.0 mi SW 11.5 mph 19.6 mph N/A   Clear
2:35 PM 55.9 °F - 16.2 °F 21% 29.68 in 10.0 mi WSW 12.7 mph 18.4 mph N/A   Clear
2:55 PM 55.4 °F - 17.1 °F 22% 29.69 in 10.0 mi WSW 8.1 mph - N/A   Clear
3:15 PM 56.3 °F - 17.6 °F 22% 29.70 in 10.0 mi WSW 3.5 mph - N/A   Clear
3:35 PM 57.2 °F - 16.5 °F 20% 29.71 in 10.0 mi West 8.1 mph - N/A   Clear
3:55 PM 58.8 °F - 17.1 °F 20% 29.71 in 10.0 mi WSW 5.8 mph - N/A   Clear
4:15 PM 58.3 °F - 17.4 °F 20% 29.72 in 10.0 mi WSW 4.6 mph - N/A   Clear
4:35 PM 58.1 °F - 17.8 °F 21% 29.73 in 10.0 mi SW 3.5 mph - N/A   Clear
4:55 PM 57.0 °F - 17.6 °F 21% 29.73 in 10.0 mi SSW 5.8 mph - N/A   Clear
5:15 PM 55.2 °F - 18.0 °F 23% 29.74 in 10.0 mi SW 3.5 mph - N/A   Clear
5:35 PM 53.6 °F - 18.1 °F 25% 29.75 in 10.0 mi Calm Calm - N/A   Clear
5:55 PM 48.4 °F - 20.8 °F 34% 29.75 in 10.0 mi Calm Calm - N/A   Clear
6:15 PM 45.7 °F 44.4 °F 23.2 °F 41% 29.76 in 10.0 mi South 3.5 mph - N/A   Clear
6:35 PM 45.3 °F 43.0 °F 22.1 °F 40% 29.77 in 10.0 mi SSW 4.6 mph - N/A   Clear
6:55 PM 46.4 °F 45.2 °F 21.2 °F 37% 29.78 in 10.0 mi SW 3.5 mph - N/A   Clear
7:15 PM 41.4 °F - 23.5 °F 49% 29.79 in 10.0 mi Calm Calm - N/A   Clear
7:35 PM 39.0 °F 36.8 °F 26.4 °F 61% 29.79 in 10.0 mi SSE 3.5 mph - N/A   Clear
7:55 PM 39.9 °F 33.4 °F 24.8 °F 55% 29.82 in 10.0 mi NW 10.4 mph 18.4 mph N/A   Clear
8:15 PM 46.6 °F - 22.8 °F 39% 29.83 in 10.0 mi NNW 5.8 mph - N/A   Clear
8:35 PM 45.7 °F 42.0 °F 23.0 °F 41% 29.85 in 10.0 mi North 6.9 mph - N/A   Clear
8:55 PM 45.3 °F 43.0 °F 23.5 °F 42% 29.85 in 10.0 mi NNW 4.6 mph - N/A   Clear
9:15 PM 44.2 °F 40.3 °F 23.9 °F 45% 29.86 in 10.0 mi North 6.9 mph - N/A   Clear
9:35 PM 43.5 °F 40.9 °F 23.7 °F 46% 29.86 in 10.0 mi North 4.6 mph - N/A   Clear
9:55 PM 43.0 °F 40.3 °F 23.0 °F 45% 29.87 in 10.0 mi NNW 4.6 mph - N/A   Clear
10:15 PM 42.3 °F 40.5 °F 22.8 °F 46% 29.87 in 10.0 mi North 3.5 mph - N/A   Clear
10:35 PM 41.5 °F 39.6 °F 22.8 °F 47% 29.88 in 10.0 mi North 3.5 mph - N/A   Clear
10:55 PM 39.9 °F - 23.0 °F 51% 29.88 in 10.0 mi Calm Calm - N/A   Clear
11:15 PM 39.7 °F - 23.0 °F 51% 29.88 in 10.0 mi Calm Calm - N/A   Clear
11:35 PM 40.5 °F 38.4 °F 22.5 °F 49% 29.88 in 10.0 mi North 3.5 mph - N/A   Clear
11:55 PM 39.6 °F - 22.8 °F 51% 29.88 in 10.0 mi Calm Calm - N/A   Clear